Regional Weather Roundup
Issued by NWS

Home | Current Version | Previous Version | Text Only | Print | Product List | Glossary Off
Versions: 1 2 3 4 5 6 7 8 9 10 11 12 13 14 15 16 17 18 19 20 21 22 23 24 25 26 27 28 29 30 31 32 33 34 35 36 37 38 39 40 41 42 43 44 45 46 47 48 49 50

000
ASUS45 KBOU 261507
RWRCO

WEATHER ROUNDUP FOR COLORADO
NATIONAL WEATHER SERVICE DENVER/BOULDER CO
900 AM MDT TUE MAY 26 2015

NOTE: "FAIR" INDICATES FEW OR NO CLOUDS BELOW 12000 FEET WITH NO
SIGNIFICANT WEATHER AND/OR OBSTRUCTIONS TO VISIBILITY.

COZ001>005-013-030-031-261600-
...NORTHWEST COLORADO...

CITY           SKY/WX    TMP DP  RH WIND       PRES   REMARKS
CRAIG          CLOUDY    51  43  74 NE8       30.12R
HAYDEN         CLOUDY    48  39  71 E6        30.13R
MEEKER         MOSUNNY   52  42  69 CALM      30.12S
MOUNT WERNER   NOT AVBL
STEAMBOAT SPGS CLOUDY    44  41  88 CALM      30.15R
WALDEN         PTSUNNY   46  37  71 SW3       30.17S
$$

COZ006>008-011-261600-
...WEST CENTRAL VALLEYS...

CITY           SKY/WX    TMP DP  RH WIND       PRES   REMARKS
GRAND JUNCTION PTSUNNY   58  44  60 SE3       30.07S
MONTROSE       MOSUNNY   58  41  53 W5        30.13S
EAGLE          CLOUDY    48  45  87 CALM      30.18R
RIFLE            N/A     51  45  79 CALM      30.13R
DELTA          MOSUNNY   59  45  59 MISG      30.12S
NUCLA          MOSUNNY   52  41  66 CALM      30.17S
$$

COZ017>023-064>068-261600-
...SOUTHWEST COLORADO...

CITY           SKY/WX    TMP DP  RH WIND       PRES   REMARKS
DURANGO        SUNNY     50  40  68 VRB5      30.19R
CORTEZ         MOSUNNY   53  44  71 CALM      30.15R
PAGOSA SPRINGS SUNNY     50  39  67 CALM      30.22S
TELLURIDE      SUNNY     46  35  67 CALM      30.27S
WOLF CREEK PAS NOT AVBL
$$

COZ009-010-012-014-032>034-037-058>063-261600-
...CENTRAL COLORADO...

CITY           SKY/WX    TMP DP  RH WIND       PRES   REMARKS
ASPEN          PTSUNNY   46  40  79 CALM      30.17S
BUENA VISTA    MOSUNNY   49  35  56 CALM      30.18S
COPPER MTN     CLOUDY    34  30  86 W12G17    30.32R WCI  25
BERTHOUD PASS  CLOUDY    27  19  74 NW24G32   30.31R WCI  12
COTTONWOOD PAS CLOUDY    48  30  49 N5        30.25R
GUNNISON       MOSUNNY   46  37  71 NE3       30.23S
KREMMLING      CLOUDY    45  37  76 CALM      30.19R
LEADVILLE      CLOUDY    36  35  96 NE6       30.24R
SALIDA         MOSUNNY   52  38  59 NE5       30.23F
SUNLIGHT       FOG       36  36 100 CALM      30.31S VSB 1/2
WILKERSON PASS CLOUDY    37  25  60 W5        30.32R
$$

COZ069>075-261600-
...SAN LUIS VALLEY/SANGRE DE CRISTO MOUNTAINS...

CITY           SKY/WX    TMP DP  RH WIND       PRES   REMARKS
ALAMOSA        SUNNY     49  37  63 VRB3      30.19S
LA VETA PASS   SUNNY    N/A N/A N/A MISG      30.27R
SAGUACHE       NOT AVBL
$$

COZ035-036-038>040-261600-
...NORTHERN COLORADO FRONT RANGE...

CITY           SKY/WX    TMP DP  RH WIND       PRES   REMARKS
DENVER INTL AP PTSUNNY   57  45  64 SW8       30.07R
DMNS CITY PARK   N/A     57  44  61 S2G8      30.07S
AURORA         NOT AVBL
FRONT RANGE AP PTSUNNY   59  45  58 CALM      30.08S
ERIE MUNI ARPT PTSUNNY   55  47  74 CALM      30.07S
BOULDER MUN AP PTSUNNY   54  45  71 CALM      30.06S
CENTENNIAL     PTSUNNY   55  45  68 SW6       30.09R
BROOMFIELD     NOT AVBL
FORT COLLINS   PTSUNNY   54  46  76 S5        30.07S
LONGMONT       CLOUDY    59  48  66 CALM      30.07S
$$

COZ041-046-047-076>085-087-088-261600-
...PIKES PEAK/PALMER DIVIDE AND SOUTHERN FOOTHILLS...

CITY           SKY/WX    TMP DP  RH WIND       PRES   REMARKS
COLO. SPRINGS  MOSUNNY   57  41  55 CALM      30.11S
A. F. ACADEMY  NOT AVBL
ELLICOTT       NOT AVBL
FALCON         PTSUNNY   55  36  50 SE6       30.14S
FORT CARSON    NOT AVBL
LIMON          CLOUDY    56  43  61 NW6       30.08R
MONUMENT HILL  NOT AVBL
TRINIDAD       SUNNY     56  45  66 CALM      30.10S
$$

COZ042>045-048>051-090-091-261600-
...NORTHEAST COLORADO...

CITY           SKY/WX    TMP DP  RH WIND       PRES   REMARKS
GREELEY ARPT   PTSUNNY   55  48  76 SW7       30.06S
AKRON          MOSUNNY   57  50  77 VRB7      30.04S
BURLINGTON     PTSUNNY   60  49  66 NW9       30.04R
WRAY           MOSUNNY   62  53  72 N6        30.01S
STERLING       PTSUNNY   59  50  72 N6        30.02S
HOLYOKE        NOT AVBL
FORT MORGAN    PTSUNNY   57  48  72 CALM      30.06S
$$

COZ086-089-092>099-261600-
...SOUTHEAST COLORADO...

CITY           SKY/WX    TMP DP  RH WIND       PRES   REMARKS
PUEBLO         SUNNY     58  46  64 CALM      30.06S
LA JUNTA       SUNNY     61  48  62 W7        30.06S
LAMAR          SUNNY     63  50  62 W8        30.03S
SPRINGFIELD      N/A     62  47  57 NE6       30.05S
$$



USA.gov is the U.S. government's official web portal to all federal, state and local government web resources and services.